Location: ??????
(55.8274°N, 37.9338°E)
Time: 04:13:03
(UTC+00:00)

Daily predictions for brighter satellites

Satellite Brightness Start Highest point End
(mag) Time Altitude Azimuth Time Altitude Azimuth Time Altitude Azimuth
Cosmos 2221 2.9 00:03:42 34° WSW 00:05:02 45° WNW 00:09:10 10° N
COSMOS 2441 4.4 00:00:55 10° NNE 00:05:51 85° ESE 00:08:43 25° SSW
Cosmos 2333 Rocket 2.4 00:04:54 27° WSW 00:07:59 63° NW 00:13:38 10° NNE
Lacrosse 5 2.0 00:05:37 30° SW 00:08:01 64° SSE 00:13:05 10° ENE
NOSS 3-1 (C) 4.2 00:01:55 10° NW 00:08:29 69° NNE 00:16:43 10° ESE
ALOS 3.0 00:04:01 10° NNE 00:08:32 48° E 00:12:16 14° S
Cosmos 972 Rocket 4.0 00:07:57 27° SSW 00:10:58 81° WNW 00:16:03 10° NNE
Cosmos 44 Rocket 3.5 00:10:18 28° SSW 00:13:04 71° SE 00:18:13 10° NE
Cosmos 2360 Rocket 2.6 00:09:55 24° WSW 00:13:09 53° NW 00:18:43 10° NNE
Lacrosse 4 Rocket 3.2 00:15:03 12° WNW 00:17:52 24° NNW 00:21:08 10° NNE
Cosmos 2278 Rocket 2.1 00:13:02 10° NW 00:18:42 67° WSW 00:24:19 10° SSE
Cosmos 1743 3.9 00:16:33 10° NW 00:19:33 24° W 00:19:41 23° W
NOSS 3-4 (A) 3.3 00:16:26 25° SW 00:19:55 88° SE 00:26:17 10° NE
NOSS 3-4 (C) 3.3 00:16:29 25° SW 00:19:58 88° SE 00:26:21 10° NE
Sich 1 2.9 00:16:18 10° NNW 00:20:34 86° W 00:24:32 12° S
Cosmos 1733 3.2 00:18:09 10° N 00:21:47 71° ENE 00:25:22 10° SSE
IDEFIX/ARIANE 42P 2.9 00:17:45 10° N 00:22:46 50° WNW 00:25:43 23° SW
Cosmos 2322 Rocket 3.0 00:19:32 19° WSW 00:23:13 41° NW 00:28:32 10° NNE
Cosmos 773 Rocket 4.5 00:20:38 24° WSW 00:23:39 50° NW 00:28:48 10° NNE
NOSS 2-3 (C) 4.4 00:18:53 10° NW 00:24:09 60° SW 00:31:20 10° SSE
BlueWalker 3 2.5 00:23:38 31° WSW 00:24:36 36° SSW 00:28:08 10° SE
SAR-Lupe-1 4.0 00:21:19 10° NNE 00:24:58 85° ESE 00:26:59 25° SSW
MSX 4.1 00:21:36 10° NNE 00:27:17 58° WNW 00:31:06 21° SW
Cosmos 1743 Rocket 3.4 00:23:49 10° NNW 00:28:11 77° W 00:32:27 10° S
NOSS 2-3 (D) 4.4 00:24:03 10° NW 00:29:17 59° SW 00:36:24 10° SSE
Cosmos 2219 Rocket 2.3 00:27:22 23° SW 00:30:57 66° NW 00:36:33 10° NNE
Cosmos 1538 Rocket 4.2 00:26:59 18° SSW 00:31:01 71° ESE 00:36:20 10° NNE
ATLAS 3B R/B 3.6 00:23:30 10° NW 00:31:08 61° NNE 00:38:53 10° ESE
Cosmos 192 4.4 00:27:26 10° NW 00:32:15 57° WSW 00:37:03 10° S
Gbstr 26 Del rocket 3.9 00:31:34 22° SSW 00:33:15 29° SSE 00:36:36 10° E
Cosmos 1536 3.1 00:30:04 10° NNW 00:33:47 43° W 00:35:46 23° SSW
Meteor 2-10 4.1 00:28:26 10° NNW 00:34:01 78° W 00:39:42 10° S
Cosmos 1420 Rocket 4.1 00:29:50 10° NNW 00:35:06 81° ENE 00:40:23 10° SSE
Cosmos 1633 Rocket 4.1 00:31:11 10° N 00:35:23 47° ENE 00:39:35 10° SSE
SAR-Lupe-4 3.5 00:32:33 10° NNE 00:36:07 70° WNW 00:38:09 24° SSW
SWAS 4.3 00:32:07 10° NW 00:36:21 86° SW 00:40:34 10° SSE
COBE Rocket 4.2 00:32:21 10° N 00:36:52 46° WNW 00:39:40 21° SW
NOSS 7 (E) 4.4 00:34:05 10° WNW 00:37:03 48° SW 00:40:19 10° SSE
NOSS 2-2 (E) 4.3 00:33:06 10° WNW 00:37:06 39° SW 00:42:32 10° SSE
Cosmos 2056 Rocket 3.8 00:33:10 10° NNW 00:38:35 76° ENE 00:43:59 10° SSE
Cosmos 1805 3.5 00:35:53 10° N 00:39:35 64° ENE 00:43:16 10° SSE
GP-B 3.1 00:35:22 10° N 00:39:46 65° W 00:43:17 15° SSW
SL-16 R/B 3.6 00:35:17 11° W 00:40:01 29° NNW 00:44:56 10° NNE
Meteor 1-28 Rocket 4.3 00:45:43 22° WSW 00:46:42 24° W 00:49:44 10° NW
Cosmos 1092 Rocket 4.1 00:42:36 10° S 00:48:44 79° E 00:54:55 10° NNE
ADEOS II 2.3 00:44:01 10° N 00:49:10 56° WNW 00:53:12 16° SW
CZ-2C R/B 3.5 00:45:20 10° NNE 00:50:19 46° E 00:55:17 10° S
Cosmos 1624 Rocket 4.0 00:45:50 10° NNW 00:51:08 88° ENE 00:56:21 10° SSE
FENGYUN 3A 3.8 00:45:47 10° NNE 00:51:09 62° WNW 00:55:38 15° SW
NOSS 2-2 (D) 4.2 00:47:30 10° WNW 00:51:26 40° SW 00:56:45 10° SSE
Cosmos 1726 3.1 00:51:26 10° NW 00:53:58 22° W 00:54:45 20° WSW
Meteor 1-19 Rocket 4.4 00:48:28 10° S 00:54:24 87° E 01:00:29 10° NNE
Cosmos 2026 Rocket 4.1 00:50:26 10° S 00:56:45 88° ESE 01:03:11 10° NNE
SL-16 R/B 3.1 00:51:35 11° SSW 00:57:00 36° W 01:02:42 10° NNW
Okean 1 3.2 00:54:37 16° SSW 00:57:32 61° WNW 01:01:21 10° N
CZ-2D R/B 3.0 00:55:28 10° N 01:00:18 36° WNW 01:04:21 14° WSW
ATLAS 5 CENTAUR R/B 1.9 00:56:37 10° NW 01:01:10 87° NE 01:06:51 10° SE
Cosmos 1461 3.7 00:59:11 10° WNW 01:02:21 24° WSW 01:05:28 10° S
Envisat 3.2 01:02:05 10° NNE 01:07:12 74° ESE 01:12:16 10° S
Cosmos 923 Rocket 4.4 01:02:21 10° SSW 01:07:31 66° ESE 01:12:46 10° NNE
Cosmos 1151 Rocket 3.0 01:04:24 10° SSW 01:08:42 81° W 01:13:05 10° N
RESURS DK-1 2.3 01:06:15 14° SW 01:09:46 87° SE 01:13:52 10° NE
Intercosmos 25 Rocket 3.1 01:15:14 10° NNW 01:18:25 60° W 01:22:25 10° S
Cosmos 1766 3.7 01:15:26 10° N 01:19:07 60° ENE 01:22:45 10° SSE
Cosmos 1943 Rocket 2.5 01:14:01 10° NW 01:19:22 44° WSW 01:24:41 10° S
Cosmos 921 Rocket 4.3 01:15:44 10° S 01:19:43 40° ESE 01:23:48 10° NE
Cosmos 1371 Rocket 4.0 01:14:43 10° NNW 01:19:51 59° WSW 01:25:01 10° S
ATLAS 2AS CENTAUR R/B 4.1 01:13:26 10° S 01:20:00 36° ESE 01:26:19 10° ENE
Meteor 1-27 Rocket 3.9 01:15:01 10° SSW 01:20:44 61° WNW 01:26:23 10° N
Cosmos 1470 Rocket 3.7 01:16:51 10° N 01:21:15 79° ENE 01:25:39 10° SSE
Cosmos 1975 2.8 01:18:52 10° NNW 01:22:40 55° W 01:26:26 10° S
Thor Agena Rocket 3.8 01:18:04 10° NNE 01:23:08 72° ESE 01:28:09 10° S
NOAA 11 4.3 01:19:32 10° NNE 01:25:02 84° ESE 01:30:30 10° SSW
H-2A R/B 3.8 01:22:06 10° NNE 01:26:36 33° E 01:31:08 10° SSE
Meteor 2-4 Rocket 3.8 01:21:14 10° S 01:26:38 78° ESE 01:32:14 10° NNE
COSMOS 2428 3.1 01:22:41 11° SW 01:28:07 54° NW 01:33:43 10° NNE
Cosmos 1340 2.6 01:24:46 10° NNW 01:28:08 51° W 01:31:28 10° S
Cosmos 2297 3.8 01:22:27 10° NW 01:28:15 86° NE 01:34:01 10° SE
CZ-4 R/B 3.9 01:23:40 10° NNE 01:28:28 68° WNW 01:33:08 10° SSW
CZ-2C R/B 4.5 01:31:47 10° WSW 01:34:12 13° W 01:36:36 10° NW
Cosmos 1484 Rocket 4.5 01:31:07 10° NNE 01:34:25 32° E 01:37:41 10° SSE
CZ-2C R/B 4.1 01:30:12 10° N 01:34:29 30° WNW 01:38:57 10° WSW
Cosmos 1666 Rocket 3.9 01:30:27 10° NNW 01:34:45 47° W 01:39:00 10° SSW
S3M 4.1 01:29:16 10° N 01:35:28 84° E 01:41:41 10° SSE
NOSS 3-1 (A) 4.0 01:28:59 10° NW 01:35:48 90° NE 01:44:15 10° SE
Cosmos 2237 Rocket 2.3 01:30:14 10° SSW 01:35:56 88° WNW 01:41:41 10° NE
Cosmos 1980 3.8 01:31:29 10° SW 01:37:10 84° NW 01:42:52 10° NE
Cosmos 2369 Rocket 2.4 01:31:52 10° NNW 01:37:33 79° NE 01:43:09 10° SE
Cosmos 1626 2.3 01:36:22 10° S 01:39:38 65° E 01:42:56 10° NNE
BREEZE-M DEB (TANK) 2.2 01:38:06 10° SW 01:40:13 30° SSE 01:42:06 10° E
Resurs 1-4 Rocket 3.7 01:37:10 10° N 01:41:02 21° NW 01:44:52 10° W
USA 229 DEB 4.4 01:36:45 10° NW 01:43:47 65° NNE 01:51:33 10° ESE
USA 229 4.4 01:36:53 10° NW 01:43:54 65° NNE 01:51:40 10° ESE
USA 215 3.4 01:37:35 10° E 01:44:09 82° N 01:50:43 10° W
ALOS 3.2 01:41:33 10° N 01:45:37 31° WNW 01:49:42 10° WSW
Cosmos 2112 Rocket 4.2 01:41:43 10° SSW 01:47:04 84° ESE 01:52:28 10° NNE
Cosmos 1933 Rocket 3.8 01:44:12 10° N 01:48:37 79° ENE 01:52:58 10° SSE
DMSP B5D2-2 4.3 01:44:47 10° S 01:49:47 47° W 01:54:50 10° NNW
YAOGAN 11 4.3 01:45:26 10° SSE 01:49:56 90° ESE 01:54:32 10° NNW
Lacrosse 5 2.0 01:45:53 10° W 01:51:01 79° N 01:56:10 10° E
Cosmos 2266 Rocket 4.3 01:45:59 10° S 01:52:02 71° E 01:58:04 10° NNE
CRYOSAT 2 4.4 01:47:09 10° N 01:52:05 89° W 01:56:57 10° S
